Weather History for Fremont, MI

Change the Weather History Date:

Thursday, December 12, 2013

  Actual Average (KMKG) Record (KMKG)
Temperature  
Mean Temperature 14 °F 31 °F  
Max Temperature 21 °F 36 °F 57 °F (1899)
Min Temperature 7 °F 26 °F -5 °F (1958)
Degree Days  
Heating Degree Days 51 34  
Month to date heating degree days 389  
Since 1 July heating degree days 1756  
Cooling Degree Days 0 0  
Month to date cooling degree days 0  
Year to date cooling degree days 566  
Moisture  
Dew Point 11 °F    
Average Humidity 84    
Maximum Humidity 90    
Minimum Humidity 76    
Precipitation  
Precipitation 0.00 in 0.09 in 1.16 in (1984)
Month to date precipitation 1.12  
Year to date precipitation 32.06  
Snow  
Snow 0.00 in 1.00 in 7.40 in (1956)
Month to date snowfall 9.7  
Since 1 July snowfall 15.9  
Snow Depth -    
Sea Level Pressure  
Sea Level Pressure 30.24 in    
Wind  
Wind Speed 7 mph (WSW)    
Max Wind Speed 15 mph    
Max Gust Speed 22 mph    
Visibility 5 miles    
Events Snow    
T = Trace of Precipitation, MM = Missing Value Source: NWS Daily Summary

Daily Weather History Graph

Daily Weather History Graph

Search for Another Location

Airport:

Trip Planner

Search our weather history database for the weather conditions in past years. The results will help you decide how hot, cold, wet, or windy it might be!

Date:

Astronomy

Dec. 12, 2013 Rise Set
Actual Time 8:07 AM EST 5:07 PM EST
Civil Twilight 7:35 AM EST 5:40 PM EST
Nautical Twilight 6:59 AM EST 6:16 PM EST
Astronomical Twilight 6:24 AM EST 6:51 PM EST
Moon 2:20 PM EST (12/12) 3:23 AM EST (12/12)
Length of Visible Light 10h 05m
Length of Day
9h 00m
Waxing Gibbous, 80% of the Moon is Illuminated
Dec 12
Waxing Gibbous
Dec 17
Full
Dec 25
Last Quarter
Jan 1
New
Jan 7
First Quarter

Hourly Weather History & Observations

Time (EST) Temp. Windchill Dew Point Humidity Pressure Visibility Wind Dir Wind Speed Gust Speed Precip Events Conditions
12:12 AM 9.9 °F -2.2 °F 5.0 °F 81% 30.40 in 5.0 mi WNW 8.1 mph - N/A Snow Light Snow
12:32 AM 9.3 °F -1.7 °F 4.5 °F 81% 30.40 in 7.0 mi WNW 6.9 mph - N/A Snow Light Snow
12:53 AM 9.3 °F -0.5 °F 4.1 °F 79% 30.40 in 10.0 mi WNW 5.8 mph - N/A   Overcast
1:13 AM 9.1 °F 0.8 °F 4.3 °F 81% 30.39 in 7.0 mi West 4.6 mph - N/A Snow Light Snow
1:33 AM 9.0 °F 0.6 °F 4.5 °F 82% 30.39 in 7.0 mi West 4.6 mph - N/A Snow Light Snow
1:53 AM 9.1 °F 0.8 °F 4.6 °F 82% 30.39 in 10.0 mi West 4.6 mph - N/A Snow Light Snow
2:13 AM 9.0 °F 2.4 °F 5.0 °F 84% 30.38 in 5.0 mi WSW 3.5 mph - N/A Snow Light Snow
2:33 AM 9.0 °F - 5.5 °F 86% 30.38 in 4.0 mi Calm Calm - N/A Snow Light Snow
2:53 AM 8.6 °F 2.0 °F 5.5 °F 87% 30.38 in 1.8 mi SW 3.5 mph - N/A Snow Light Snow
3:13 AM 9.0 °F 2.4 °F 6.3 °F 89% 30.39 in 2.0 mi WSW 3.5 mph - N/A Snow Light Snow
3:33 AM 9.9 °F -2.2 °F 6.8 °F 87% 30.38 in 2.5 mi West 8.1 mph - N/A Snow Light Snow
3:53 AM 10.4 °F -3.3 °F 6.8 °F 85% 30.38 in 2.5 mi West 10.4 mph - N/A Snow Light Snow
4:14 AM 10.2 °F -1.7 °F 5.9 °F 83% 30.37 in 3.0 mi West 8.1 mph 16.1 mph N/A Snow Light Snow
4:34 AM 10.0 °F -1.9 °F 5.9 °F 83% 30.36 in 4.0 mi West 8.1 mph - N/A Snow Light Snow
4:54 AM 9.9 °F -1.1 °F 5.9 °F 84% 30.35 in 5.0 mi West 6.9 mph - N/A Snow Light Snow
5:14 AM 9.5 °F -0.3 °F 5.5 °F 84% 30.35 in 10.0 mi WSW 5.8 mph - N/A Snow Light Snow
5:34 AM 9.0 °F 2.4 °F 4.8 °F 83% 30.34 in 10.0 mi SW 3.5 mph - N/A Snow Light Snow
5:54 AM 8.2 °F 1.6 °F 4.6 °F 85% 30.33 in 10.0 mi SSW 3.5 mph - N/A Snow Light Snow
6:14 AM 7.5 °F 0.8 °F 4.1 °F 86% 30.33 in 10.0 mi SSW 3.5 mph - N/A   Overcast
6:34 AM 9.5 °F 1.2 °F 5.4 °F 83% 30.32 in 10.0 mi SSW 4.6 mph - N/A   Overcast
6:54 AM 9.7 °F 1.4 °F 5.2 °F 82% 30.32 in 10.0 mi SW 4.6 mph - N/A   Overcast
7:14 AM 11.7 °F 2.3 °F 7.0 °F 81% 30.30 in 3.0 mi WSW 5.8 mph - N/A Snow Light Snow
7:35 AM 13.3 °F 2.0 °F 9.0 °F 83% 30.29 in 4.0 mi WSW 8.1 mph - N/A Snow Light Snow
7:55 AM 13.6 °F 2.5 °F 10.4 °F 87% 30.29 in 1.5 mi WSW 8.1 mph - N/A Snow Light Snow
8:15 AM 13.8 °F 1.8 °F 11.1 °F 89% 30.28 in 0.8 mi WSW 9.2 mph - N/A Snow Light Snow
8:35 AM 14.0 °F 1.2 °F 11.3 °F 89% 30.27 in 0.8 mi WSW 10.4 mph - N/A Snow Light Snow
8:55 AM 14.4 °F 2.4 °F 11.7 °F 89% 30.27 in 0.8 mi WSW 9.2 mph - N/A Snow Light Snow
9:15 AM 14.5 °F 1.9 °F 12.0 °F 90% 30.26 in 0.8 mi WSW 10.4 mph - N/A Snow Light Snow
9:30 AM 14.9 °F 3.1 °F 12.0 °F 88% 30.25 in 1.5 mi SW 9.2 mph 16.1 mph N/A Snow Light Snow
9:50 AM 15.3 °F 2.8 °F 12.2 °F 88% 30.25 in 0.8 mi SW 10.4 mph - N/A Snow Light Snow
10:11 AM 15.8 °F 3.4 °F 13.1 °F 89% 30.24 in 1.5 mi SW 10.4 mph - N/A Snow Light Snow
10:31 AM 16.9 °F 2.3 °F 13.6 °F 87% 30.24 in 3.0 mi SW 15.0 mph - N/A Snow Light Snow
10:51 AM 17.6 °F 3.7 °F 13.1 °F 83% 30.23 in 2.0 mi WSW 13.8 mph - N/A Snow Light Snow
11:11 AM 18.3 °F 5.2 °F 12.0 °F 76% 30.23 in 4.0 mi West 12.7 mph 21.9 mph N/A Snow Light Snow
11:31 AM 17.6 °F 3.2 °F 12.2 °F 79% 30.22 in 2.0 mi West 15.0 mph 21.9 mph N/A Snow Light Snow
11:51 AM 16.9 °F 4.1 °F 12.6 °F 83% 30.22 in 1.0 mi WSW 11.5 mph 21.9 mph N/A Snow Light Snow
12:11 PM 16.7 °F 3.2 °F 12.9 °F 85% 30.21 in 1.2 mi West 12.7 mph 16.1 mph N/A Snow Light Snow
12:31 PM 16.5 °F 4.3 °F 12.2 °F 83% 30.21 in 1.5 mi West 10.4 mph - N/A Snow Light Snow
12:51 PM 16.5 °F 6.0 °F 12.6 °F 84% 30.19 in 1.2 mi West 8.1 mph - N/A Snow Light Snow
1:12 PM 16.7 °F 5.3 °F 12.7 °F 84% 30.20 in 1.2 mi West 9.2 mph 17.3 mph N/A Snow Light Snow
1:32 PM 16.3 °F 2.1 °F 11.8 °F 82% 30.20 in 1.5 mi West 13.8 mph - N/A Snow Light Snow
1:52 PM 16.5 °F 6.0 °F 12.2 °F 83% 30.19 in 2.0 mi West 8.1 mph 16.1 mph N/A Snow Light Snow
2:12 PM 16.5 °F 5.1 °F 12.6 °F 84% 30.19 in 1.5 mi West 9.2 mph - N/A Snow Light Snow
2:32 PM 16.5 °F 6.9 °F 12.9 °F 86% 30.18 in 1.5 mi West 6.9 mph - N/A Snow Light Snow
2:52 PM 16.7 °F 4.5 °F 12.7 °F 84% 30.18 in 1.8 mi West 10.4 mph - N/A Snow Light Snow
3:12 PM 16.7 °F 7.2 °F 13.1 °F 86% 30.18 in 1.5 mi West 6.9 mph - N/A Snow Light Snow
3:52 PM 17.1 °F 6.6 °F 13.6 °F 86% 30.18 in 1.5 mi West 8.1 mph - N/A Snow Light Snow
4:12 PM 16.7 °F 6.2 °F 13.6 °F 88% 30.18 in 1.5 mi West 8.1 mph - N/A Snow Light Snow
4:33 PM 17.1 °F 8.7 °F 14.0 °F 88% 30.18 in 1.8 mi West 5.8 mph - N/A Snow Light Snow
4:53 PM 16.9 °F 8.5 °F 14.2 °F 89% 30.18 in 1.8 mi WSW 5.8 mph - N/A Snow Light Snow
5:13 PM 17.2 °F 7.8 °F 14.4 °F 88% 30.18 in 3.0 mi WSW 6.9 mph - N/A Snow Light Snow
5:33 PM 17.4 °F 9.1 °F 14.5 °F 88% 30.17 in 5.0 mi WSW 5.8 mph - N/A Snow Light Snow
5:53 PM 18.0 °F 9.8 °F 14.5 °F 86% 30.16 in 10.0 mi WSW 5.8 mph - N/A Snow Light Snow
6:13 PM 18.1 °F 10.0 °F 14.5 °F 86% 30.16 in 10.0 mi WSW 5.8 mph - N/A Snow Light Snow
6:33 PM 18.3 °F 11.5 °F 14.7 °F 86% 30.16 in 10.0 mi West 4.6 mph - N/A   Overcast
6:53 PM 18.5 °F 11.7 °F 14.7 °F 85% 30.16 in 10.0 mi WSW 4.6 mph - N/A   Overcast
7:14 PM 18.5 °F 11.7 °F 14.9 °F 86% 30.17 in 10.0 mi West 4.6 mph - N/A   Overcast
7:34 PM 19.2 °F 12.5 °F 15.3 °F 85% 30.16 in 10.0 mi West 4.6 mph - N/A   Overcast
7:54 PM 19.9 °F 12.1 °F 15.8 °F 84% 30.15 in 10.0 mi West 5.8 mph - N/A   Overcast
8:14 PM 20.3 °F 12.5 °F 16.0 °F 83% 30.15 in 10.0 mi West 5.8 mph - N/A   Overcast
8:34 PM 20.7 °F 11.9 °F 16.7 °F 85% 30.15 in 10.0 mi West 6.9 mph - N/A   Overcast
8:54 PM 21.2 °F 12.6 °F 16.7 °F 83% 30.14 in 10.0 mi West 6.9 mph - N/A   Overcast
9:14 PM 21.2 °F 11.7 °F 16.7 °F 83% 30.14 in 10.0 mi West 8.1 mph - N/A   Overcast
9:34 PM 21.2 °F 13.6 °F 16.7 °F 83% 30.13 in 10.0 mi West 5.8 mph - N/A   Overcast
9:54 PM 21.2 °F 12.6 °F 16.5 °F 82% 30.13 in 10.0 mi West 6.9 mph - N/A   Overcast
10:14 PM 21.2 °F 13.6 °F 16.5 °F 82% 30.13 in 10.0 mi West 5.8 mph - N/A   Overcast
10:34 PM 21.6 °F 14.0 °F 16.7 °F 82% 30.13 in 10.0 mi West 5.8 mph - N/A   Overcast
10:55 PM 21.6 °F 14.0 °F 17.1 °F 83% 30.13 in 10.0 mi West 5.8 mph - N/A   Overcast
11:15 PM 21.7 °F 14.3 °F 17.1 °F 82% 30.13 in 10.0 mi West 5.8 mph - N/A   Overcast
11:35 PM 21.9 °F 15.7 °F 17.4 °F 83% 30.12 in 10.0 mi West 4.6 mph - N/A   Overcast
11:55 PM 21.9 °F 15.7 °F 17.4 °F 83% 30.12 in 10.0 mi WSW 4.6 mph - N/A   Overcast